METEOR 2-7 DEB, 38288

Orbit data source: Space-Track

METEOR 2-7 DEB, 38288 is space debris in LEO originally from a launch on Thu, 14 May 1981 UTC launched from the Plesetsk Missile And Space Complex (PKMTR). Debris objects in space refer to the collection of defunct objects orbiting the Earth. Examples of debris include non-operational satellites, rocket bodies, and fragments generated from explosions, collisions, or faulty payload assembly.

Loading next visibility...
Identifier
38288, 1981-043W
Orbit
LEO
Country
Flag of CISCIS
Related business
Manufacturer
Unknown
Mission
Spacecraft
Bus & Motor
Unknown
Mass
Unknown
Launch date (UTC)
1981-05-14 (45 years ago)
Launch vehicle
Unknown
Launch site
Plesetsk Missile And Space Complex (PKMTR)
Object type
Payload
Rocket body
Debris
Shape & HBR
Unknown shape, 0.1 m
Radar Cross Section
Small (<0.1 m²)

Expand to show TLE details & history
Last TLE update: 2 weeks ago

TLE from 2 weeks ago
0 METEOR 2-7 DEB
1 38288U 81043W   25329.38495126  .00002243  00000-0  66294-3 0  9995
2 38288  81.2517 201.6671 0030786  76.7837 283.6783 14.42957898471534
Epoch: 2025-11-25T09:14Z
TLE epoch observation values (Epoch: 2025-11-25T09:14:19.788Z)
Latitude
-0.00007°
Longitude
-1.48669°
Altitude
746.561 km
Speed
7.484 km/s
True Right ascension
13h 26m 40s
True Declination
0° 00' 00"
Sunlit
Object was in daylight at epoch
Visualization orbit readout
Latitude
Unknown
Longitude
Unknown
Altitude
Unknown
Speed
Unknown
Apparent Right ascension
Unknown
Apparent Declination
Unknown
Sunlit
N/A
Visualization observer readout
Local Sidereal Time
21:12:41
Azimuth
Unknown
Elevation
Unknown
Doppler factor
Unknown
Orbital elements
Apogee altitude
767.804 km
Perigee altitude
723.94 km
Semi-major axis
7,124.009 km
Eccentricity
0.00308
Inclination
81.2517°
RAAN
201.6671°
Arg. of periapsis
76.7837°
True anomaly
283.33521°
Mean anomaly
283.6783°
Eccentric anomaly
283.50679°
Mean motion
3.60958 °/min
Orbital period
99.73 mins
BSTAR
0.00066294
Loading maneuver chart data...
Computing Atmospheric mass density...

Documentation

Showing up to 5 results
|